Location: Walnut Hills Mobile Home Park
(34.0445°N, 117.8184°W)
Time: 02:57:51
(UTC+00:00)

USA 290 - Pass Details

Date: 17 December 2025
Orbit: 396 x 415 km, 73.6° (Epoch: 30 October)

Event Time Altitude Azimuth Distance (km) Brightness Sun altitude
Rises 14:09:21 0° 224° (SW) 2,303 5.8 -8.6°
Reaches altitude 10° 14:11:40 10° 240° (WSW) 1,452 4.6 -8.2°
Maximum altitude 14:14:12 22° 293° (WNW) 955 3.4 -7.7°
Drops below altitude 10° 14:16:45 10° 346° (NNW) 1,466 4.6 -7.2°
Sets 14:19:07 0° 2° (N) 2,333 5.8 -6.8°
